GW0087 Weather Reports


time (UTC)temp
C
wind
direction
speed
KPH
gust
KPH
rain 1hr
cm
rain 24hr
cm
rain mn
cm
humidity
%
barometer
mb
20260506103529 15 0 0.0 8.0 0.00 0.00 0.00 71 1011.8
20260506103038 15 0 0.0 4.8 0.00 0.00 0.00 70 1011.7
20260506102530 15 304 0.0 4.8 0.00 0.00 0.00 70 1011.8
20260506102030 15 0 0.0 6.4 0.00 0.00 0.00 70 1011.5
20260506101537 15 243 0.0 6.4 0.00 0.00 0.00 71 1011.6
20260506101029 15 0 0.0 6.4 0.00 0.00 0.00 71 1011.5
20260506100533 15 0 0.0 6.4 0.00 0.00 0.00 72 1011.3
20260506100043 15 0 0.0 3.2 0.00 0.00 0.00 72 1011.1
20260506095530 15 0 0.0 3.2 0.00 0.00 0.00 71 1011.2
20260506095030 15 0 0.0 3.2 0.00 0.00 0.00 71 1011.3
20260506094540 15 0 0.0 4.8 0.00 0.00 0.00 71 1011.2
20260506094029 15 0 0.0 4.8 0.00 0.00 0.00 71 1011.1
20260506093529 15 0 0.0 3.2 0.00 0.00 0.00 71 1011.2
20260506093044 15 340 0.0 3.2 0.00 0.00 0.00 72 1011.2
20260506092530 15 0 0.0 3.2 0.00 0.00 0.00 71 1011.1
20260506092030 15 0 0.0 3.2 0.00 0.00 0.00 71 1011.0
20260506091536 16 0 0.0 3.2 0.00 0.00 0.00 72 1010.9
20260506091030 15 0 0.0 3.2 0.00 0.00 0.00 72 1011.0
20260506090529 15 0 0.0 1.6 0.00 0.00 0.00 72 1011.0
20260506090039 16 0 0.0 3.2 0.00 0.00 0.00 72 1011.0
20260506085529 16 0 0.0 3.2 0.00 0.00 0.00 72 1011.0
20260506085029 16 0 0.0 1.6 0.00 0.00 0.00 72 1010.9
20260506084538 16 0 0.0 4.8 0.00 0.00 0.00 72 1010.8
20260506084029 16 0 0.0 4.8 0.00 0.00 0.00 72 1010.8
20260506083530 16 0 0.0 3.2 0.00 0.00 0.00 72 1010.7
20260506083041 16 0 0.0 3.2 0.00 0.00 0.00 72 1010.7
20260506082530 16 0 0.0 3.2 0.00 0.00 0.00 72 1010.7
20260506082031 16 0 0.0 3.2 0.00 0.00 0.00 72 1010.7
20260506081538 16 0 0.0 4.8 0.00 0.00 0.00 72 1010.4
20260506081030 16 0 0.0 4.8 0.00 0.00 0.00 72 1010.4
20260506080530 16 0 0.0 4.8 0.00 0.00 0.00 71 1010.3
20260506073047 16 0 0.0 3.2 0.00 0.00 0.00 71 1010.5
20260506072532 17 0 0.0 4.8 0.00 0.00 0.00 71 1010.5
20260506072030 17 0 0.0 4.8 0.00 0.00 0.00 72 1010.6
20260506071543 17 90 0.0 3.2 0.00 0.00 0.00 72 1010.7
20260506071031 17 276 0.0 3.2 0.00 0.00 0.00 72 1010.5
20260506070530 17 0 0.0 4.8 0.00 0.00 0.00 72 1010.4
20260506062029 17 0 0.0 6.4 0.00 0.00 0.00 72 1010.4
20260506061541 17 0 0.0 6.4 0.00 0.00 0.00 72 1010.6
20260506061030 17 0 0.0 6.4 0.00 0.00 0.00 72 1010.4
20260506060530 17 0 0.0 4.8 0.00 0.00 0.00 72 1010.4
20260506051030 18 57 0.0 3.2 0.00 0.00 0.00 72 1010.1
20260506050530 19 0 0.0 3.2 0.00 0.00 0.00 72 1010.1
20260506045031 19 0 0.0 8.0 0.00 0.00 0.00 71 1010.3
20260506044541 19 0 0.0 8.0 0.00 0.00 0.00 71 1010.3
20260506044029 19 0 0.0 8.0 0.00 0.00 0.00 71 1010.0
20260506043533 20 0 0.0 6.4 0.00 0.00 0.00 70 1010.2
20260506043036 20 0 0.0 6.4 0.00 0.00 0.00 70 1010.1
20260506042529 20 0 0.0 6.4 0.00 0.00 0.00 69 1010.0
20260506042029 20 0 0.0 4.8 0.00 0.00 0.00 69 1010.0
20260506041552 20 13 0.0 6.4 0.00 0.00 0.00 69 1010.0
20260506041030 21 0 0.0 6.4 0.00 0.00 0.00 68 1010.0
20260506040529 21 0 0.0 6.4 0.00 0.00 0.00 69 1009.8
20260506040040 21 338 0.0 4.8 0.00 0.00 0.00 69 1009.6
20260506035528 21 30 0.0 6.4 0.00 0.00 0.00 68 1009.4
20260506035029 21 0 0.0 6.4 0.00 0.00 0.00 69 1009.6
20260506034547 21 0 0.0 6.4 0.00 0.00 0.00 69 1009.5
20260506034029 22 0 0.0 6.4 0.00 0.00 0.00 69 1009.5
20260506033526 22 0 0.0 6.4 0.00 0.00 0.00 69 1009.5
20260506033039 22 316 0.0 8.0 0.00 0.00 0.00 69 1009.2
20260506032528 22 46 0.0 8.0 0.00 0.00 0.00 69 1009.1
20260506032031 22 0 0.0 6.4 0.00 0.00 0.00 69 1009.3
20260506031536 22 320 0.0 9.7 0.00 0.00 0.00 69 1009.0
20260506031029 22 0 0.0 9.7 0.00 0.00 0.00 69 1008.9
20260506030531 22 0 1.6 9.7 0.00 0.00 0.00 68 1008.9
20260506030051 22 304 0.0 4.8 0.00 0.00 0.00 68 1009.1
20260506025528 23 314 0.0 4.8 0.00 0.00 0.00 68 1008.9
20260506025028 23 0 0.0 4.8 0.00 0.00 0.00 67 1008.6
20260506024552 23 0 0.0 4.8 0.00 0.00 0.00 67 1008.4
20260506024031 23 40 0.0 4.8 0.00 0.00 0.00 67 1008.3
20260506023530 23 0 0.0 8.0 0.00 0.00 0.00 67 1008.1
20260506023041 23 0 0.0 8.0 0.00 0.00 0.00 66 1008.0
20260506022530 23 346 1.6 9.7 0.00 0.00 0.00 65 1007.9
20260506022030 23 248 1.6 9.7 0.00 0.00 0.00 65 1007.8
20260506021547 24 0 0.0 3.2 0.00 0.00 0.00 65 1007.4
20260506021031 24 0 0.0 4.8 0.00 0.00 0.00 64 1007.3
20260506020529 24 0 0.0 4.8 0.00 0.00 0.00 64 1007.3
20260506020036 24 0 0.0 6.4 0.00 0.00 0.00 64 1007.3
20260506015531 24 0 0.0 6.4 0.00 0.00 0.00 63 1007.2
20260506015029 25 0 0.0 6.4 0.00 0.00 0.00 63 1007.1
20260506014544 25 0 0.0 6.4 0.00 0.00 0.00 63 1007.2
20260506014030 25 0 0.0 4.8 0.00 0.00 0.00 63 1007.4
20260506013532 25 0 0.0 4.8 0.00 0.00 0.00 63 1007.1
20260506013046 25 0 0.0 4.8 0.00 0.00 0.00 62 1006.7
20260506012528 25 0 0.0 8.0 0.00 0.00 0.00 62 1006.7
20260506012031 25 360 0.0 8.0 0.00 0.00 0.00 62 1006.9
20260506011607 26 0 1.6 8.0 0.00 0.00 0.00 62 1007.4
20260506011031 26 317 0.0 11.3 0.00 0.00 0.00 62 1006.9
20260506010529 26 0 0.0 11.3 0.00 0.00 0.00 62 1006.4
20260506010037 26 281 0.0 8.0 0.00 0.00 0.00 61 1006.3
20260506005531 27 352 0.0 4.8 0.00 0.00 0.00 60 1006.4
20260506005033 27 0 0.0 1.6 0.00 0.00 0.00 60 1006.2
20260506004543 27 0 0.0 6.4 0.00 0.00 0.00 59 1006.3
20260506004029 27 0 0.0 6.4 0.00 0.00 0.00 59 1006.1
20260506003528 27 306 1.6 6.4 0.00 0.00 0.00 58 1006.1
20260506003043 27 0 0.0 3.2 0.00 0.00 0.00 58 1006.1
20260506002529 27 0 0.0 8.0 0.00 0.00 0.00 57 1006.1
20260506002030 28 0 0.0 8.0 0.00 0.00 0.00 57 1006.1
20260506001543 28 0 0.0 12.9 0.00 0.00 0.00 57 1006.1
20260506001031 28 319 1.6 12.9 0.00 0.00 0.00 56 1006.0
20260506000533 28 0 1.6 9.7 0.00 0.00 0.00 56 1005.9
20260506000046 29 293 1.6 9.7 0.00 0.00 0.00 55 1005.8
20260505235529 29 40 0.0 19.3 0.00 0.00 0.00 55 1005.5
20260505235029 30 293 0.0 19.3 0.00 0.00 0.00 54 1005.3
20260505234536 30 302 0.0 16.1 0.00 0.00 0.00 52 1005.4
20260505234031 30 315 4.8 16.1 0.00 0.00 0.00 50 1005.4
20260505233532 30 0 4.8 16.1 0.00 0.00 0.00 48 1005.3
20260505233042 31 294 3.2 16.1 0.00 0.00 0.00 48 1005.3
20260505232531 31 0 1.6 16.1 0.00 0.00 0.00 47 1005.2
20260505232028 32 317 1.6 16.1 0.00 0.00 0.00 46 1005.1
20260505231544 32 336 1.6 17.7 0.00 0.00 0.00 45 1004.8
20260505231030 32 316 1.6 17.7 0.00 0.00 0.00 47 1005.0
20260505230531 33 0 0.0 8.0 0.00 0.00 0.00 53 1004.6
20260505230038 33 0 1.6 11.3 0.00 0.00 0.00 52 1004.5
20260505225529 33 0 0.0 11.3 0.00 0.00 0.00 53 1004.5
20260505225030 33 186 0.0 11.3 0.00 0.00 0.00 52 1004.5
20260505224537 33 0 0.0 3.2 0.00 0.00 0.00 52 1004.5
20260505224031 33 272 0.0 4.8 0.00 0.00 0.00 52 1004.4
20260505223532 33 0 0.0 4.8 0.00 0.00 0.00 51 1004.5
20260505223044 33 0 0.0 6.4 0.00 0.00 0.00 52 1004.4
20260505222528 33 0 0.0 6.4 0.00 0.00 0.00 51 1004.3
20260505222031 33 193 1.6 6.4 0.00 0.00 0.00 50 1004.3
20260505221554 34 0 0.0 6.4 0.00 0.00 0.00 51 1004.3
20260505221030 34 0 0.0 6.4 0.00 0.00 0.00 50 1004.4
20260505220533 34 185 0.0 4.8 0.00 0.00 0.00 50 1004.3
20260505220054 34 182 0.0 4.8 0.00 0.00 0.00 50 1004.3
20260505215531 34 211 0.0 6.4 0.00 0.00 0.00 50 1004.3
20260505215030 34 0 0.0 6.4 0.00 0.00 0.00 50 1004.4
20260505214551 34 231 0.0 4.8 0.00 0.00 0.00 50 1004.5
20260505214030 34 0 0.0 4.8 0.00 0.00 0.00 51 1004.4
20260505213528 34 144 0.0 6.4 0.00 0.00 0.00 52 1004.6
20260505213040 33 0 0.0 12.9 0.00 0.00 0.00 53 1004.7
20260505212529 33 279 1.6 12.9 0.00 0.00 0.00 52 1004.7
20260505212029 33 163 0.0 14.5 0.00 0.00 0.00 52 1004.7
20260505211539 33 5 1.6 14.5 0.00 0.00 0.00 53 1004.9
20260505211029 33 188 1.6 11.3 0.00 0.00 0.00 54 1004.9
20260505210528 33 164 0.0 12.9 0.00 0.00 0.00 54 1005.0
20260505210049 33 258 1.6 12.9 0.00 0.00 0.00 55 1005.0
20260505205533 32 198 1.6 12.9 0.00 0.00 0.00 55 1005.0
20260505205026 32 203 1.6 9.7 0.00 0.00 0.00 57 1005.1
20260505204538 32 134 1.6 9.7 0.00 0.00 0.00 56 1005.3
20260505204029 32 189 1.6 8.0 0.00 0.00 0.00 57 1005.3
20260505203526 32 0 1.6 12.9 0.00 0.00 0.00 57 1005.5
20260505203039 32 262 1.6 12.9 0.00 0.00 0.00 58 1005.4
20260505202526 31 174 1.6 11.3 0.00 0.00 0.00 58 1005.4
20260505202025 31 0 1.6 11.3 0.00 0.00 0.00 59 1005.4
20260505201541 31 160 1.6 11.3 0.00 0.00 0.00 59 1005.5
20260505201026 31 283 1.6 20.9 0.00 0.00 0.00 60 1005.6
20260505200526 31 0 3.2 20.9 0.00 0.00 0.00 59 1005.5
20260505200037 31 266 4.8 16.1 0.00 0.00 0.00 58 1005.6
20260505195525 31 257 3.2 14.5 0.00 0.00 0.00 58 1005.6
20260505195025 31 190 1.6 14.5 0.00 0.00 0.00 60 1005.6
20260505194535 31 200 1.6 14.5 0.00 0.00 0.00 60 1005.7
20260505194029 31 216 1.6 8.0 0.00 0.00 0.00 60 1005.7
20260505193526 31 254 1.6 12.9 0.00 0.00 0.00 61 1005.8
20260505193042 30 174 1.6 16.1 0.00 0.00 0.00 61 1005.6
20260505192526 30 262 1.6 16.1 0.00 0.00 0.00 61 1005.6
20260505192028 30 236 1.6 12.9 0.00 0.00 0.00 61 1005.7
20260505191542 30 175 0.0 12.9 0.00 0.00 0.00 63 1005.7
20260505191027 30 288 1.6 8.0 0.00 0.00 0.00 63 1005.7
20260505190529 30 165 0.0 11.3 0.00 0.00 0.00 65 1005.6
20260505190039 30 244 1.6 11.3 0.00 0.00 0.00 65 1005.8
20260505185526 29 158 1.6 14.5 0.00 0.00 0.00 65 1005.8
20260505185029 29 188 1.6 17.7 0.00 0.00 0.00 65 1005.8
20260505184536 29 0 3.2 17.7 0.00 0.00 0.00 65 1006.0
20260505184027 29 239 1.6 9.7 0.00 0.00 0.00 65 1005.8
20260505183527 29 167 0.0 11.3 0.00 0.00 0.00 66 1005.9
20260505183047 29 224 1.6 11.3 0.00 0.00 0.00 66 1005.9
20260505182526 28 194 0.0 14.5 0.00 0.00 0.00 66 1005.8
20260505182026 28 0 3.2 14.5 0.00 0.00 0.00 67 1005.9
20260505181536 28 170 1.6 9.7 0.00 0.00 0.00 66 1006.0
20260505181026 28 184 1.6 11.3 0.00 0.00 0.00 66 1006.0
20260505180526 28 0 1.6 11.3 0.00 0.00 0.00 66 1006.0
20260505180041 28 250 1.6 11.3 0.00 0.00 0.00 66 1006.1
20260505175526 28 216 0.0 9.7 0.00 0.00 0.00 66 1006.0
20260505175031 28 0 1.6 14.5 0.00 0.00 0.00 67 1006.1
20260505174541 28 244 1.6 14.5 0.00 0.00 0.00 67 1006.1
20260505174032 28 222 1.6 12.9 0.00 0.00 0.00 68 1006.1
20260505173528 28 228 1.6 12.9 0.00 0.00 0.00 69 1006.1
20260505173038 28 0 1.6 8.0 0.00 0.00 0.00 68 1006.1
20260505172530 28 290 1.6 8.0 0.00 0.00 0.00 69 1006.1
20260505172031 28 214 1.6 11.3 0.00 0.00 0.00 69 1006.1
20260505171536 28 234 1.6 14.5 0.00 0.00 0.00 68 1006.0
20260505171030 27 208 3.2 14.5 0.00 0.00 0.00 68 1006.1
20260505170530 27 251 1.6 11.3 0.00 0.00 0.00 69 1006.1
20260505170036 27 211 1.6 12.9 0.00 0.00 0.00 70 1006.3
20260505165530 27 270 1.6 12.9 0.00 0.00 0.00 70 1006.2
20260505165030 27 0 1.6 12.9 0.00 0.00 0.00 70 1006.3
20260505164554 27 214 1.6 11.3 0.00 0.00 0.00 70 1006.2
20260505164030 27 175 1.6 16.1 0.00 0.00 0.00 71 1006.2
20260505163531 27 260 1.6 16.1 0.00 0.00 0.00 71 1006.2
20260505163037 27 305 3.2 12.9 0.00 0.00 0.00 71 1006.4
20260505162530 26 210 0.0 11.3 0.00 0.00 0.00 72 1006.2
20260505162031 26 227 3.2 12.9 0.00 0.00 0.00 72 1006.3
20260505161553 26 212 1.6 12.9 0.00 0.00 0.00 73 1006.4
20260505161029 26 157 3.2 14.5 0.00 0.00 0.00 73 1006.1
20260505160529 26 0 1.6 16.1 0.00 0.00 0.00 74 1006.0
20260505153046 25 169 3.2 14.5 0.00 0.00 0.00 76 1005.8
20260505152530 25 248 0.0 14.5 0.00 0.00 0.00 77 1006.0
20260505152028 25 0 1.6 14.5 0.00 0.00 0.00 78 1006.0
20260505151540 24 0 1.6 12.9 0.00 0.00 0.00 78 1006.1
20260505151028 24 0 1.6 12.9 0.00 0.00 0.00 78 1006.2
20260505150529 24 205 1.6 8.0 0.00 0.00 0.00 78 1006.1
20260505140532 22 0 0.0 6.4 0.00 0.00 0.00 83 1005.8
20260505125028 21 173 1.6 11.3 0.00 0.00 0.00 84 1005.6
20260505124547 21 164 0.0 11.3 0.00 0.00 0.00 84 1005.6
20260505124029 21 161 1.6 11.3 0.00 0.00 0.00 84 1005.6
20260505123529 21 0 1.6 17.7 0.00 0.00 0.00 84 1005.5
20260505123037 21 0 0.0 17.7 0.00 0.00 0.00 84 1005.3
20260505122530 21 0 1.6 17.7 0.00 0.00 0.00 84 1005.1
20260505122029 21 155 0.0 14.5 0.00 0.00 0.00 84 1005.1
20260505121537 21 0 0.0 14.5 0.00 0.00 0.00 84 1004.9
20260505121029 21 0 0.0 16.1 0.00 0.00 0.00 84 1005.0
20260505120529 21 0 1.6 16.1 0.00 0.00 0.00 84 1005.2
20260505120054 21 182 1.6 9.7 0.00 0.00 0.00 84 1005.0
20260505115528 21 154 1.6 14.5 0.00 0.00 0.00 84 1005.1
20260505115032 21 217 1.6 16.1 0.00 0.00 0.00 84 1005.1
20260505114542 21 217 0.0 16.1 0.00 0.00 0.00 84 1005.0
20260505114029 21 0 1.6 6.4 0.00 0.00 0.00 84 1004.9
20260505113530 21 0 0.0 9.7 0.00 0.00 0.00 84 1005.0
20260505113054 21 230 1.6 9.7 0.00 0.00 0.00 84 1004.9
20260505112529 21 0 0.0 9.7 0.00 0.00 0.00 84 1004.6
20260505112029 21 0 0.0 14.5 0.00 0.00 0.00 84 1004.7
20260505111537 21 178 1.6 14.5 0.00 0.00 0.00 84 1004.6
20260505111029 21 207 1.6 9.7 0.00 0.00 0.00 84 1004.8
20260505110528 21 0 0.0 9.7 0.00 0.00 0.00 84 1004.9